TimeEDT,TemperatureF,Dew PointF,Humidity,Sea Level PressureIn,VisibilityMPH,Wind Direction,Wind SpeedMPH,Gust SpeedMPH,PrecipitationIn,Events,Conditions,WindDirDegrees,DateUTC
12:53 AM,37.0,28.9,73,30.59,10.0,SE,5.8,-,N/A,,Clear,140,2013-04-22 04:53:00
1:53 AM,39.0,30.9,73,30.58,10.0,SSE,6.9,-,N/A,,Clear,150,2013-04-22 05:53:00
2:53 AM,37.0,30.9,79,30.58,10.0,Calm,Calm,-,N/A,,Clear,0,2013-04-22 06:53:00
3:53 AM,33.1,28.9,85,30.58,10.0,Calm,Calm,-,N/A,,Clear,0,2013-04-22 07:53:00
4:53 AM,32.0,28.9,88,30.58,10.0,Calm,Calm,-,N/A,,Clear,0,2013-04-22 08:53:00
5:53 AM,30.9,28.0,89,30.58,9.0,Calm,Calm,-,N/A,,Clear,0,2013-04-22 09:53:00
6:53 AM,30.9,28.9,92,30.60,7.0,Calm,Calm,-,N/A,,Clear,0,2013-04-22 10:53:00
7:53 AM,37.0,33.1,86,30.60,9.0,Calm,Calm,-,N/A,,Clear,0,2013-04-22 11:53:00
8:53 AM,43.0,32.0,65,30.61,10.0,East,9.2,-,N/A,,Clear,100,2013-04-22 12:53:00
9:53 AM,46.9,30.0,52,30.60,10.0,ESE,12.7,18.4,N/A,,Clear,120,2013-04-22 13:53:00
10:53 AM,48.9,30.9,50,30.59,10.0,East,9.2,17.3,N/A,,Clear,80,2013-04-22 14:53:00
11:53 AM,50.0,28.9,44,30.56,10.0,ESE,3.5,20.7,N/A,,Clear,120,2013-04-22 15:53:00
12:53 PM,53.1,32.0,45,30.54,10.0,East,11.5,-,N/A,,Clear,80,2013-04-22 16:53:00
1:53 PM,53.1,30.9,43,30.51,10.0,East,10.4,16.1,N/A,,Partly Cloudy,100,2013-04-22 17:53:00
2:53 PM,55.0,32.0,42,30.48,10.0,ESE,6.9,19.6,N/A,,Scattered Clouds,110,2013-04-22 18:53:00
3:53 PM,55.9,32.0,40,30.46,10.0,East,9.2,17.3,N/A,,Clear,100,2013-04-22 19:53:00
4:53 PM,55.0,32.0,42,30.44,10.0,East,11.5,19.6,N/A,,Partly Cloudy,90,2013-04-22 20:53:00
5:53 PM,53.1,30.0,41,30.44,10.0,ESE,10.4,-,N/A,,Scattered Clouds,110,2013-04-22 21:53:00
6:53 PM,51.1,30.0,44,30.44,10.0,East,13.8,21.9,N/A,,Partly Cloudy,100,2013-04-22 22:53:00
7:53 PM,48.9,30.0,48,30.45,10.0,ESE,9.2,-,N/A,,Clear,110,2013-04-22 23:53:00
8:53 PM,46.0,30.0,54,30.46,10.0,ESE,6.9,-,N/A,,Clear,110,2013-04-23 00:53:00
9:53 PM,44.1,30.0,58,30.47,10.0,East,9.2,-,N/A,,Clear,100,2013-04-23 01:53:00
10:53 PM,42.1,30.0,62,30.46,10.0,East,8.1,-,N/A,,Clear,90,2013-04-23 02:53:00
11:53 PM,39.9,33.1,77,30.45,10.0,Calm,Calm,-,N/A,,Overcast,0,2013-04-23 03:53:00